Skip Page Navigation
NASA JPL Caltech
NASA Logo - Jet Propulsion Laboratory + View the NASA Portal
+ Center for Near-Earth Object Studies
JPL Home Earth Solar System Stars & Galaxies Technology
JPL Solar System Dynamics
BODIES ORBITS EPHEMERIDES TOOLS PHYSICAL DATA DISCOVERY FAQ SITE MAP
IMPORTANT: The SSD Announcement email list is now available. Major changes are coming in the near future, including possible hostname and/or URL changes. To be notified of such changes, subscribe to this email list.

Please visit this page for more details.


JPL Small-Body Database Browser
Search: [ help ]  
17275 (2000 LX19)
Classification: Main-belt Asteroid          SPK-ID: 2017275
Ephemeris | Orbit Diagram | Orbital Elements | Mission Design | Physical Parameters | Discovery Circumstances ]

[ show orbit diagram ]
Orbital Elements at Epoch 2459000.5 (2020-May-31.0) TDB
Reference: JPL 27 (heliocentric ecliptic J2000)
 Element Value Uncertainty (1-sigma)   Units 
e .1053724274365732 7.3085e-08  
a 2.540766245874069 1.155e-08 au
q 2.273039538997409 1.8661e-07 au
i 11.94995270800275 3.8183e-06 deg
node 251.4700348866331 2.8347e-05 deg
peri 259.8203686735183 3.6718e-05 deg
M 108.6114712682329 2.1165e-05 deg
tp 2458554.208423739849
(2019-Mar-11.70842374)
8.7261e-05 TDB
period 1479.263337266349
4.05
1.0087e-05
2.762e-08
d
yr
n .2433643766668843 1.6595e-09 deg/d
Q 2.808492952750729 1.2767e-08 au
  Orbit Determination Parameters
   # obs. used (total)      1546  
   data-arc span      15130 days (41.42 yr)  
   first obs. used      1977-12-07  
   last obs. used      2019-05-11  
   planetary ephem.      DE431  
   SB-pert. ephem.      SB431-N16  
   condition code      0  
   norm. resid. RMS      .43774  
   source      ORB  
   producer      Otto Matic  
   solution date      2019-May-30 02:30:07  

Additional Information
 Earth MOID = 1.32038 au 
 Jupiter MOID = 2.33751 au 
 T_jup = 3.408 
[ show covariance matrix ]

Ephemeris | Orbit Diagram | Orbital Elements | Mission Design | Physical Parameters | Discovery Circumstances ]

Physical Parameter Table
Parameter Symbol Value Units Sigma Reference Notes
absolute magnitude H 13.5   n/a MPO473996  
diameter diameter 5.625 km 0.302 urn:nasa:pds:neowise_diameters_albedos::2.0[mainbelt] (http://adsabs.harvard.edu/abs/2011ApJ...741...68M)  
geometric albedo albedo 0.203   0.046 urn:nasa:pds:neowise_diameters_albedos::2.0[mainbelt] (http://adsabs.harvard.edu/abs/2011ApJ...741...68M)  

17275 (2000 LX19)          Discovered 2000-Jun-08 by LINEAR at Socorro
Reference: 20000913/Numbers.arcLast Updated: 2004-04-19

Alternate Designations
 2000 LX19 = 1977 XQ = 1979 HF1 = 1981 XM1 
Ephemeris | Orbit Diagram | Orbital Elements | Mission Design | Physical Parameters | Discovery Circumstances ]
ABOUT SSD CREDITS/AWARDS PRIVACY/COPYRIGHT GLOSSARY LINKS
FirstGov 2020-Mar-30 13:39 UT
(server date/time)  
NASA Home Page
Site Manager:   Ryan S. Park
Webmaster  Alan B. Chamberlin